| time (UTC) | temp F | wind direction | speed MPH | gust MPH | rain 1hr in | rain 24hr in | rain mn in | humidity % | barometer mb |
| 20260504081516 | 46 | 231 | 1.0 | 7.0 | 0.00 | 0.00 | 0.00 | 64 | 1010.6 |
| 20260504050011 | 42 | 325 | 0.0 | 3.0 | 0.00 | 0.00 | 0.00 | 82 | 1011.0 |
| 20260504044518 | 42 | 327 | 0.0 | 1.0 | 0.00 | 0.00 | 0.00 | 82 | 1011.1 |
| 20260504043004 | 41 | 327 | 0.0 | 0.0 | 0.00 | 0.00 | 0.00 | 83 | 1011.0 |
| 20260504041505 | 41 | 327 | 0.0 | 0.0 | 0.00 | 0.00 | 0.00 | 83 | 1011.1 |
| 20260504040022 | 40 | 326 | 0.0 | 0.0 | 0.00 | 0.00 | 0.00 | 81 | 1011.0 |
| 20260504034515 | 40 | 327 | 0.0 | 0.0 | 0.00 | 0.00 | 0.00 | 82 | 1010.9 |
| 20260504033022 | 39 | 327 | 0.0 | 0.0 | 0.00 | 0.00 | 0.00 | 81 | 1011.0 |
| 20260504031525 | 40 | 327 | 0.0 | 0.0 | 0.00 | 0.00 | 0.00 | 78 | 1010.9 |
| 20260504030010 | 41 | 327 | 0.0 | 2.0 | 0.00 | 0.00 | 0.00 | 75 | 1010.8 |
| 20260504024513 | 42 | 324 | 0.0 | 1.0 | 0.00 | 0.00 | 0.00 | 73 | 1010.8 |
| 20260504023018 | 42 | 323 | 0.0 | 2.0 | 0.00 | 0.00 | 0.00 | 72 | 1010.9 |
| 20260504021523 | 43 | 327 | 0.0 | 2.0 | 0.00 | 0.00 | 0.00 | 70 | 1011.0 |
| 20260504020024 | 43 | 327 | 0.0 | 2.0 | 0.00 | 0.00 | 0.00 | 71 | 1011.1 |
| 20260504014518 | 43 | 327 | 0.0 | 2.0 | 0.00 | 0.00 | 0.00 | 68 | 1011.1 |
| 20260504013014 | 43 | 327 | 0.0 | 2.0 | 0.00 | 0.00 | 0.00 | 66 | 1011.0 |
| 20260504011518 | 44 | 327 | 0.0 | 2.0 | 0.00 | 0.00 | 0.00 | 64 | 1010.9 |
| 20260504010021 | 45 | 327 | 0.0 | 1.0 | 0.00 | 0.00 | 0.00 | 61 | 1010.6 |
| 20260504004538 | 47 | 327 | 0.0 | 1.0 | 0.00 | 0.00 | 0.00 | 57 | 1010.3 |
| 20260504003012 | 50 | 329 | 0.0 | 2.0 | 0.00 | 0.00 | 0.00 | 54 | 1010.1 |
| 20260504001516 | 53 | 311 | 0.0 | 2.0 | 0.00 | 0.00 | 0.00 | 42 | 1010.1 |
| 20260504000021 | 54 | 360 | 1.0 | 4.0 | 0.00 | 0.00 | 0.00 | 40 | 1009.9 |
| 20260503234523 | 55 | 360 | 1.0 | 7.0 | 0.00 | 0.00 | 0.00 | 38 | 1009.7 |
| 20260503233026 | 56 | 321 | 3.0 | 11.0 | 0.00 | 0.00 | 0.00 | 36 | 1009.6 |
| 20260503231509 | 56 | 315 | 2.0 | 9.0 | 0.00 | 0.00 | 0.00 | 34 | 1009.6 |
| 20260503230015 | 56 | 5 | 1.0 | 8.0 | 0.00 | 0.00 | 0.00 | 33 | 1009.3 |
| 20260503224518 | 56 | 338 | 1.0 | 8.0 | 0.00 | 0.00 | 0.00 | 32 | 1009.2 |
| 20260503223024 | 56 | 342 | 3.0 | 10.0 | 0.00 | 0.00 | 0.00 | 29 | 1009.2 |
| 20260503221527 | 57 | 291 | 4.0 | 12.0 | 0.00 | 0.00 | 0.00 | 28 | 1009.1 |
| 20260503220014 | 57 | 298 | 6.0 | 14.0 | 0.00 | 0.00 | 0.00 | 28 | 1009.0 |
| 20260503214518 | 57 | 360 | 4.0 | 13.0 | 0.00 | 0.00 | 0.00 | 29 | 1009.1 |
| 20260503213021 | 57 | 350 | 8.0 | 15.0 | 0.00 | 0.00 | 0.00 | 30 | 1009.0 |
| 20260503211525 | 57 | 294 | 4.0 | 15.0 | 0.00 | 0.00 | 0.00 | 32 | 1009.0 |
| 20260503210025 | 57 | 32 | 5.0 | 13.0 | 0.00 | 0.00 | 0.00 | 31 | 1009.0 |
| 20260503204525 | 57 | 219 | 4.0 | 16.0 | 0.00 | 0.00 | 0.00 | 32 | 1008.9 |
| 20260503203020 | 56 | 293 | 8.0 | 13.0 | 0.00 | 0.00 | 0.00 | 33 | 1009.1 |
| 20260503201523 | 56 | 310 | 6.0 | 12.0 | 0.00 | 0.00 | 0.00 | 33 | 1009.3 |
| 20260503200026 | 56 | 360 | 5.0 | 12.0 | 0.00 | 0.00 | 0.00 | 34 | 1009.4 |
| 20260503194531 | 55 | 321 | 6.0 | 13.0 | 0.00 | 0.00 | 0.00 | 39 | 1009.5 |
| 20260503193034 | 54 | 54 | 6.0 | 13.0 | 0.00 | 0.00 | 0.00 | 38 | 1010.0 |
| 20260503191522 | 54 | 360 | 5.0 | 13.0 | 0.00 | 0.00 | 0.00 | 41 | 1010.1 |
| 20260503190008 | 53 | 360 | 5.0 | 15.0 | 0.00 | 0.00 | 0.00 | 40 | 1010.2 |
| 20260503184512 | 52 | 17 | 6.0 | 18.0 | 0.00 | 0.00 | 0.00 | 38 | 1010.5 |
| 20260503183014 | 51 | 39 | 7.0 | 13.0 | 0.00 | 0.00 | 0.00 | 41 | 1010.7 |
| 20260503181520 | 50 | 304 | 6.0 | 17.0 | 0.00 | 0.00 | 0.00 | 40 | 1010.7 |
| 20260503180026 | 51 | 352 | 7.0 | 16.0 | 0.00 | 0.00 | 0.00 | 41 | 1010.6 |
| 20260503174507 | 50 | 319 | 6.0 | 17.0 | 0.00 | 0.00 | 0.00 | 41 | 1010.6 |
| 20260503173020 | 51 | 58 | 7.0 | 16.0 | 0.00 | 0.00 | 0.00 | 39 | 1010.7 |
| 20260503171522 | 50 | 327 | 5.0 | 14.0 | 0.00 | 0.00 | 0.00 | 42 | 1010.7 |